Location: Capelle
(50.3413°N, 1.9974°E)
Time: 23:26:12
(UTC+00:00)

BREEZE-M DEB (TANK) - Visible Passes

Search period start: 18 April 2026 00:00
Search period end: 28 April 2026 00:00
Orbit: 618 x 17094 km, 49.5° (Epoch: 17 April)

Date Brightness Start Highest point End Pass type
(mag) Time Alt. Az. Time Alt. Az. Time Alt. Az.
18 Apr 8.9 00:14:12 10° SSE 01:13:57 25° ESE 01:34:29 10° ENE visible
19 Apr 8.2 02:01:27 10° S 03:25:20 48° SE 03:41:31 10° ENE visible
19 Apr 9.1 23:23:12 10° SE 23:55:13 15° ESE 00:12:28 10° E visible
20 Apr 7.2 04:26:53 10° SW 05:34:57 71° SSE 05:45:30 10° ENE visible
21 Apr 8.6 00:45:42 10° S 02:05:31 38° SE 02:25:06 10° ENE visible
22 Apr 7.7 02:53:20 10° SSW 04:16:36 61° SSE 04:30:03 10° ENE visible
22 Apr 8.8 23:40:52 10° SSE 00:45:43 27° ESE 01:07:24 10° ENE visible
24 Apr 8.2 01:27:59 10° S 02:57:19 50° SE 03:14:16 10° ENE visible
24 Apr 9.0 22:49:28 10° SE 23:26:57 16° ESE 23:46:00 10° E visible
25 Apr 7.2 03:53:51 10° SW 05:07:15 73° SSE 05:18:17 10° ENE visible
26 Apr 8.6 00:22:13 13° S 01:37:20 39° SE 01:57:52 10° ENE visible
27 Apr 7.7 02:24:41 12° SSW 03:48:43 62° SSE 04:02:48 10° ENE visible
